Overview Statistics Trail Chart Weather Telemetry Raw packets
 

This is the latest recevied weather packets stored in our database for station/object SV9TNF-56. If no packets are shown the sender has not sent any weather packets the latest 10 day(s).

<< 16 17 18 19 20 21 22 >>
Time Temp. Humidity Pressure Rain* Wind** Luminosity Snow
1788545989 25° C 68% 1012.2 hPa 0 mm 13.41 m/s, 296° - -
1788545689 25° C 66% 1011.9 hPa 0 mm 17.88 m/s, 222° - -
1788545389 25° C 64% 1011.9 hPa 0 mm 22.35 m/s, 323° - -
1788545089 25° C 60% 1011.9 hPa 0 mm 36.21 m/s, 290° - -
1788544789 25° C 66% 1011.5 hPa 0 mm 24.59 m/s, 296° - -
1788544489 24.44° C 67% 1011.9 hPa 0 mm 13.86 m/s, 312° - -
1788544189 25° C 66% 1011.9 hPa 0 mm 23.25 m/s, 317° - -
1788543889 25° C 64% 1011.5 hPa 0 mm 32.19 m/s, 253° - -
1788543589 25° C 64% 1011.5 hPa 0 mm 12.96 m/s, 222° - -
1788543288 25° C 63% 1011.5 hPa 0 mm 21.01 m/s, 295° - -
1788542988 25° C 61% 1011.2 hPa 0 mm 25.48 m/s, 270° - -
1788542688 25.56° C 61% 1011.2 hPa 0 mm 21.01 m/s, 249° - -
1788542389 25.56° C 59% 1010.8 hPa 0 mm 14.75 m/s, 213° - -
1788542088 25.56° C 56% 1011.2 hPa 0 mm 24.14 m/s, 244° - -
1788541788 25.56° C 55% 1010.8 hPa 0 mm 13.86 m/s, 300° - -
1788541488 25.56° C 57% 1010.8 hPa 0 mm 21.9 m/s, 201° - -
1788541188 25.56° C 56% 1010.8 hPa 0 mm 6.26 m/s, 128° - -
1788540887 25.56° C 57% 1010.8 hPa 0 mm 8.05 m/s, 201° - -
1788540588 25.56° C 55% 1010.5 hPa 0 mm 17.88 m/s, 161° - -
1788540287 25.56° C 56% 1010.8 hPa 0 mm 25.48 m/s, 254° - -
1788539988 25.56° C 58% 1010.8 hPa 0 mm 13.41 m/s, 300° - -
1788539687 25.56° C 58% 1010.8 hPa 0 mm 9.83 m/s, 265° - -
1788539387 25.56° C 60% 1010.8 hPa 0 mm 28.61 m/s, 233° - -
1788539087 25.56° C 59% 1010.8 hPa 0 mm 24.14 m/s, 258° - -
1788538787 25.56° C 59% 1010.5 hPa 0 mm 15.2 m/s, 192° - -

* Rain latest hour (hover to see other rain measurements)
** Current wind speed in m/s (hover to see current wind gust speed)